Walbridge, OH

6:43 PM EST on February 09, 2016 (GMT -0500)
Metcalf

Weather History for KTDZ - December, 2013

Change the Weather History Date:

Monday, December 16, 2013

  Actual Average (KTOL) Record (KTOL)
Temperature  
Mean Temperature 10 °F 29 °F  
Max Temperature 19 °F 36 °F 62 °F (1984)
Min Temperature 0 °F 23 °F -10 °F (1951)
Degree Days  
Heating Degree Days 56 36  
Month to date heating degree days 530  
Since 1 July heating degree days 1763  
Cooling Degree Days 0 0  
Month to date cooling degree days 0  
Year to date cooling degree days 793  
Moisture  
Dew Point 8 °F    
Average Humidity 78    
Maximum Humidity 93    
Minimum Humidity 65    
Precipitation  
Precipitation 0.04 in 0.08 in 0.63 in (2007)
Month to date precipitation 1.41  
Year to date precipitation 32.97  
Snow  
Snow 0.00 in 0.30 in - ()
Month to date snowfall 3.3  
Since 1 July snowfall 5.4  
Snow Depth -    
Sea Level Pressure  
Sea Level Pressure 30.11 in    
Wind  
Wind Speed 5 mph (SE)    
Max Wind Speed 9 mph    
Max Gust Speed -    
Visibility 6 miles    
Events Snow    
T = Trace of Precipitation, MM = Missing Value Source: NWS Daily Summary

Daily Weather History Graph

Daily Weather History Graph

Search for Another Location

Airport or City:

Trip Planner

Search our weather history database for the weather conditions in past years. The results will help you decide how hot, cold, wet, or windy it might be!

Date:

Astronomy

Dec. 16, 2013 Rise Set
Actual Time 7:54 AM EST 5:05 PM EST
Civil Twilight 7:22 AM EST 5:36 PM EST
Nautical Twilight 6:47 AM EST 6:11 PM EST
Astronomical Twilight 6:14 AM EST 6:45 PM EST
Moon 4:55 PM EST (12/16) 7:01 AM EST (12/16)
Length of Visible Light 10h 13m
Length of Day
9h 10m
Full, 100% of the Moon is Illuminated
Dec 16
Full
Dec 17
Full
Dec 25
Last Quarter
Jan 1
New
Jan 7
First Quarter

Hourly Weather History & Observations

Time (EST) Temp. Windchill Dew Point Humidity Pressure Visibility Wind Dir Wind Speed Gust Speed Precip Events Conditions
12:53 AM 12.0 °F 0.5 °F 6.1 °F 77% 30.10 in 9.0 mi WSW 8.1 mph - N/A   Overcast
1:53 AM 10.0 °F -2.9 °F 3.9 °F 76% 30.11 in 9.0 mi WSW 9.2 mph - N/A   Clear
2:53 AM 9.0 °F -2.2 °F 3.9 °F 80% 30.13 in 9.0 mi WSW 6.9 mph - N/A   Clear
3:53 AM 10.0 °F 1.8 °F 3.9 °F 76% 30.14 in 9.0 mi WSW 4.6 mph - N/A   Clear
4:53 AM 8.1 °F -2.0 °F 3.0 °F 80% 30.15 in 9.0 mi West 5.8 mph - N/A   Clear
5:53 AM 8.1 °F - 3.0 °F 80% 30.16 in 8.0 mi Calm Calm - N/A   Clear
6:53 AM 3.9 °F - -0.0 °F 84% 30.17 in 7.0 mi Calm Calm - N/A   Clear
7:53 AM -0.0 °F - -4.0 °F 83% 30.19 in 5.0 mi Calm Calm - N/A   Clear
8:53 AM 5.0 °F -5.6 °F 1.9 °F 87% 30.21 in 5.0 mi SSW 5.8 mph - N/A   Clear
9:53 AM 9.0 °F 0.6 °F 5.0 °F 84% 30.21 in 5.0 mi SW 4.6 mph - N/A   Clear
10:53 AM 12.0 °F 4.1 °F 6.1 °F 77% 30.22 in 7.0 mi SW 4.6 mph - N/A   Clear
11:53 AM 15.1 °F - 8.1 °F 74% 30.20 in 7.0 mi Calm Calm - N/A   Clear
12:53 PM 17.1 °F - 9.0 °F 71% 30.17 in 10.0 mi Calm Calm - N/A   Clear
1:53 PM 18.0 °F 12.7 °F 9.0 °F 68% 30.15 in 10.0 mi ESE 3.5 mph - N/A   Clear
2:53 PM 18.0 °F 12.7 °F 8.1 °F 65% 30.15 in 10.0 mi ESE 3.5 mph - N/A   Mostly Cloudy
3:53 PM 18.0 °F 11.1 °F 8.1 °F 65% 30.13 in 10.0 mi East 4.6 mph - N/A   Scattered Clouds
4:53 PM 16.0 °F 8.8 °F 7.0 °F 68% 30.14 in 10.0 mi East 4.6 mph - N/A   Clear
5:53 PM 16.0 °F 8.8 °F 7.0 °F 68% 30.13 in 10.0 mi ENE 4.6 mph - N/A   Mostly Cloudy
6:49 PM 15.8 °F 10.2 °F 6.8 °F 68% 30.09 in 10.0 mi East 3.5 mph - N/A   Mostly Cloudy
6:53 PM 15.1 °F 9.4 °F 7.0 °F 70% 30.14 in 10.0 mi East 3.5 mph - N/A   Mostly Cloudy
7:53 PM 17.1 °F - 9.0 °F 71% 30.13 in 10.0 mi Calm Calm - N/A   Overcast
8:46 PM 17.6 °F - 10.4 °F 73% 30.07 in 1.8 mi Calm Calm - 0.00 in Snow Light Snow
8:53 PM 17.1 °F - 12.0 °F 81% 30.10 in 1.0 mi Calm Calm - 0.00 in Snow Light Snow
9:09 PM 17.6 °F 10.7 °F 12.2 °F 79% 30.05 in 1.2 mi East 4.6 mph - 0.00 in Snow Light Snow
9:35 PM 17.6 °F 9.3 °F 14.0 °F 86% 30.03 in 2.0 mi East 5.8 mph - 0.01 in Snow Light Snow
9:46 PM 17.6 °F 10.7 °F 14.0 °F 86% 30.03 in 1.5 mi East 4.6 mph - 0.02 in Snow Light Snow
9:53 PM 18.0 °F 9.8 °F 14.0 °F 84% 30.06 in 1.2 mi East 5.8 mph - 0.02 in Snow Light Snow
10:17 PM 17.6 °F 10.7 °F 15.8 °F 93% 30.02 in 1.0 mi East 4.6 mph - 0.01 in Snow Light Snow
10:51 PM 19.4 °F - 15.8 °F 86% 30.01 in 1.8 mi Calm Calm - 0.02 in Snow Light Snow
10:53 PM 19.0 °F 13.9 °F 15.1 °F 85% 30.04 in 2.0 mi East 3.5 mph - 0.02 in Snow Light Snow
11:03 PM 19.4 °F 14.3 °F 15.8 °F 86% 30.00 in 6.0 mi East 3.5 mph - 0.00 in Snow Light Snow
11:53 PM 19.0 °F 13.9 °F 16.0 °F 88% 30.01 in 5.0 mi SE 3.5 mph - 0.00 in   Overcast